Ludington, MI

6:44 AM EDT on October 19, 2019 (GMT -0400)
Mason County

Weather History for KLDM - May, 2019

Change the Weather History Date:

Tuesday, May 7, 2019

  Actual Average Record
Temperature  
Mean Temperature 48 °F -  
Max Temperature 54 °F 63 °F 82 °F (2015)
Min Temperature 41 °F 38 °F 23 °F (1974)
Degree Days  
Heating Degree Days 18    
Moisture  
Dew Point 27 °F    
Average Humidity 49    
Maximum Humidity 69    
Minimum Humidity 36    
Precipitation  
Precipitation 0.00 in - - ()
Sea Level Pressure  
Sea Level Pressure 30.26 in    
Wind  
Wind Speed 7 mph (NNE)    
Max Wind Speed 12 mph    
Max Gust Speed 17 mph    
Visibility 10 miles    
Events      
Averages and records for this station are not official NWS values.
T = Trace of Precipitation, MM = Missing Value Source: NWS Daily Summary

Daily Weather History Graph

Daily Weather History Graph

Search for Another Location

Airport or City:

Astronomy

May. 07, 2019 Rise Set
Actual Time 6:29 AM EDT 8:55 PM EDT
Civil Twilight 5:57 AM EDT 9:28 PM EDT
Nautical Twilight 5:16 AM EDT 10:08 PM EDT
Astronomical Twilight 4:31 AM EDT 10:54 PM EDT
Moon 8:32 AM EDT (5/7) 11:58 PM EDT (5/7)
Length of Visible Light 15h 30m
Length of Day
14h 26m
Waxing Crescent, 8% of the Moon is Illuminated
May 7
Waxing Crescent
May 11
First Quarter
May 18
Full
May 26
Last Quarter
Jun 3
New

Hourly Weather History & Observations

Time (EDT) Temp. Windchill Dew Point Humidity Pressure Visibility Wind Dir Wind Speed Gust Speed Precip Events Conditions
12:15 AM 46.2 °F 43.3 °F 36.3 °F 68% 30.15 in 10.0 mi NE 5.8 mph - N/A   Clear
12:35 AM 45.7 °F 42.7 °F 36.1 °F 69% 30.15 in 10.0 mi NE 5.8 mph - N/A   Clear
12:36 AM 45.7 °F 42.7 °F 36.1 °F 69% 30.15 in 10.0 mi NE 5.8 mph - N/A   Clear
12:55 AM 45.5 °F 43.2 °F 35.6 °F 68% 30.15 in 10.0 mi NE 4.6 mph - N/A   Clear
12:56 AM 45.5 °F 42.5 °F 35.6 °F 68% 30.15 in 10.0 mi NE 5.8 mph - N/A   Clear
1:15 AM 45.1 °F 40.8 °F 34.7 °F 67% 30.15 in 10.0 mi ENE 8.1 mph - N/A   Clear
1:16 AM 45.1 °F 41.4 °F 34.5 °F 66% 30.15 in 10.0 mi ENE 6.9 mph - N/A   Clear
1:35 AM 45.0 °F 41.8 °F 33.3 °F 64% 30.16 in 10.0 mi NE 5.8 mph - N/A   Clear
1:55 AM 44.6 °F 42.2 °F 32.0 °F 61% 30.17 in 10.0 mi NE 4.6 mph - N/A   Scattered Clouds
2:15 AM 44.1 °F 39.5 °F 30.9 °F 60% 30.17 in 10.0 mi NE 8.1 mph - N/A   Mostly Cloudy
2:35 AM 43.7 °F 41.1 °F 29.8 °F 58% 30.17 in 10.0 mi NE 4.6 mph - N/A   Scattered Clouds
2:36 AM 43.7 °F 40.3 °F 30.0 °F 59% 30.17 in 10.0 mi NE 5.8 mph - N/A   Scattered Clouds
2:55 AM 43.2 °F 38.4 °F 29.8 °F 59% 30.17 in 10.0 mi ENE 8.1 mph - N/A   Mostly Cloudy
2:56 AM 43.2 °F 38.4 °F 29.8 °F 59% 30.17 in 10.0 mi ENE 8.1 mph - N/A   Mostly Cloudy
3:15 AM 43.2 °F 37.0 °F 29.7 °F 59% 30.17 in 10.0 mi NE 11.5 mph 16.1 mph N/A   Scattered Clouds
3:35 AM 43.2 °F 37.9 °F 29.1 °F 58% 30.18 in 10.0 mi NE 9.2 mph - N/A   Clear
3:55 AM 43.0 °F 38.2 °F 27.5 °F 54% 30.18 in 10.0 mi ENE 8.1 mph 16.1 mph N/A   Clear
3:56 AM 43.0 °F 37.7 °F 27.5 °F 54% 30.18 in 10.0 mi ENE 9.2 mph 16.1 mph N/A   Clear
4:15 AM 42.8 °F 37.0 °F 26.4 °F 52% 30.19 in 10.0 mi NE 10.4 mph 17.3 mph N/A   Clear
4:16 AM 42.8 °F 37.0 °F 26.4 °F 52% 30.19 in 10.0 mi NE 10.4 mph 17.3 mph N/A   Clear
4:35 AM 42.4 °F 38.1 °F 26.1 °F 52% 30.19 in 10.0 mi ENE 6.9 mph - N/A   Clear
4:36 AM 42.6 °F 37.8 °F 26.1 °F 52% 30.19 in 10.0 mi ENE 8.1 mph - N/A   Clear
4:55 AM 42.4 °F 38.1 °F 25.7 °F 52% 30.20 in 10.0 mi ENE 6.9 mph - N/A   Clear
5:15 AM 42.3 °F 39.4 °F 25.2 °F 51% 30.22 in 10.0 mi NE 4.6 mph - N/A   Clear
5:35 AM 42.1 °F 37.7 °F 24.8 °F 50% 30.22 in 10.0 mi NE 6.9 mph - N/A   Mostly Cloudy
5:55 AM 41.9 °F 36.9 °F 24.8 °F 51% 30.22 in 10.0 mi NE 8.1 mph - N/A   Mostly Cloudy
5:56 AM 41.9 °F 38.2 °F 24.8 °F 51% 30.22 in 10.0 mi ENE 5.8 mph - N/A   Mostly Cloudy
6:15 AM 41.9 °F 38.2 °F 24.8 °F 51% 30.22 in 10.0 mi NE 5.8 mph - N/A   Scattered Clouds
6:16 AM 41.9 °F 38.2 °F 24.8 °F 51% 30.22 in 10.0 mi ENE 5.8 mph - N/A   Mostly Cloudy
6:35 AM 41.5 °F 38.6 °F 24.8 °F 51% 30.22 in 10.0 mi ENE 4.6 mph - N/A   Mostly Cloudy
6:55 AM 41.5 °F 39.6 °F 24.6 °F 51% 30.24 in 10.0 mi ENE 3.5 mph - N/A   Overcast
7:15 AM 41.5 °F 39.6 °F 24.6 °F 51% 30.26 in 10.0 mi NE 3.5 mph - N/A   Overcast
7:16 AM 41.5 °F 39.6 °F 24.6 °F 51% 30.26 in 10.0 mi NE 3.5 mph - N/A   Overcast
7:35 AM 41.5 °F 39.6 °F 24.4 °F 51% 30.27 in 10.0 mi NE 3.5 mph - N/A   Overcast
7:36 AM 41.5 °F - 24.4 °F 51% 30.27 in 10.0 mi Calm Calm - N/A   Overcast
7:55 AM 41.9 °F 40.0 °F 24.6 °F 50% 30.27 in 10.0 mi NE 3.5 mph - N/A   Overcast
8:15 AM 41.5 °F 39.6 °F 24.4 °F 51% 30.28 in 10.0 mi NE 3.5 mph - N/A   Overcast
8:35 AM 41.9 °F 38.2 °F 25.0 °F 51% 30.28 in 10.0 mi NNE 5.8 mph - N/A   Overcast
8:55 AM 42.1 °F 39.2 °F 24.1 °F 49% 30.29 in 10.0 mi NNE 4.6 mph - N/A   Overcast
8:56 AM 42.1 °F 37.7 °F 24.1 °F 49% 30.29 in 10.0 mi NNE 6.9 mph - N/A   Overcast
9:15 AM 42.1 °F 37.7 °F 24.1 °F 49% 30.29 in 10.0 mi NNE 6.9 mph - N/A   Overcast
9:16 AM 42.1 °F 38.4 °F 24.1 °F 49% 30.29 in 10.0 mi NE 5.8 mph - N/A   Overcast
9:35 AM 42.6 °F 39.0 °F 23.7 °F 47% 30.29 in 10.0 mi NE 5.8 mph - N/A   Overcast
9:36 AM 42.6 °F 39.0 °F 23.7 °F 47% 30.29 in 10.0 mi NE 5.8 mph - N/A   Overcast
9:55 AM 43.7 °F 39.7 °F 24.3 °F 46% 30.28 in 10.0 mi ENE 6.9 mph - N/A   Overcast
9:56 AM 43.9 °F 39.9 °F 24.4 °F 46% 30.29 in 10.0 mi ENE 6.9 mph - N/A   Overcast
10:15 AM 44.6 °F 40.7 °F 25.5 °F 47% 30.29 in 10.0 mi ENE 6.9 mph - N/A   Overcast
10:35 AM 44.6 °F 40.7 °F 24.8 °F 46% 30.30 in 10.0 mi NNE 6.9 mph - N/A   Overcast
10:55 AM 45.5 °F 43.2 °F 25.9 °F 46% 30.30 in 10.0 mi NNE 4.6 mph - N/A   Overcast
10:56 AM 45.5 °F 43.2 °F 25.9 °F 46% 30.30 in 10.0 mi NE 4.6 mph - N/A   Overcast
11:15 AM 46.4 °F 42.9 °F 26.1 °F 45% 30.31 in 10.0 mi NE 6.9 mph - N/A   Overcast
11:16 AM 46.2 °F 43.3 °F 26.1 °F 45% 30.31 in 10.0 mi NE 5.8 mph - N/A   Overcast
11:35 AM 47.1 °F - 26.1 °F 44% 30.31 in 10.0 mi NNE 5.8 mph - N/A   Overcast
11:36 AM 47.3 °F - 26.2 °F 44% 30.31 in 10.0 mi NE 5.8 mph - N/A   Overcast
11:55 AM 49.5 °F - 26.6 °F 41% 30.31 in 10.0 mi NNE 4.6 mph - N/A   Overcast
12:15 PM 49.8 °F - 26.1 °F 40% 30.31 in 10.0 mi North 9.2 mph - N/A   Overcast
12:35 PM 51.3 °F - 26.8 °F 39% 30.31 in 10.0 mi NE 3.5 mph - N/A   Overcast
12:36 PM 51.6 °F - 27.3 °F 39% 30.31 in 10.0 mi ENE 6.9 mph - N/A   Overcast
12:55 PM 52.3 °F - 26.1 °F 36% 30.31 in 10.0 mi NNE 8.1 mph - N/A   Overcast
12:56 PM 52.3 °F - 25.9 °F 36% 30.31 in 10.0 mi NNE 6.9 mph - N/A   Overcast
1:15 PM 53.4 °F - 27.0 °F 36% 30.30 in 10.0 mi NE 6.9 mph - N/A   Scattered Clouds
1:16 PM 53.4 °F - 27.0 °F 36% 30.30 in 10.0 mi NE 8.1 mph - N/A   Scattered Clouds
1:35 PM 53.4 °F - 26.6 °F 36% 30.30 in 10.0 mi NNE 4.6 mph - N/A   Clear
1:55 PM 54.9 °F - 28.0 °F 36% 30.29 in 10.0 mi ENE 9.2 mph - N/A   Clear
2:15 PM 53.8 °F - 32.4 °F 44% 30.29 in 10.0 mi North 9.2 mph - N/A   Clear
2:16 PM 53.8 °F - 32.5 °F 45% 30.29 in 10.0 mi North 9.2 mph - N/A   Clear
2:35 PM 53.4 °F - 32.0 °F 44% 30.29 in 10.0 mi North 9.2 mph - N/A   Clear
2:36 PM 53.4 °F - 32.2 °F 44% 30.30 in 10.0 mi North 6.9 mph - N/A   Clear
2:55 PM 53.8 °F - 31.6 °F 43% 30.30 in 10.0 mi NNW 9.2 mph - N/A   Clear
3:15 PM 54.5 °F - 31.6 °F 42% 30.29 in 10.0 mi North 9.2 mph - N/A   Clear
3:35 PM 53.4 °F - 30.4 °F 41% 30.29 in 10.0 mi NNW 11.5 mph 16.1 mph N/A   Clear
3:55 PM 52.5 °F - 28.2 °F 39% 30.29 in 10.0 mi North 11.5 mph - N/A   Clear
3:56 PM 52.5 °F - 28.2 °F 39% 30.29 in 10.0 mi North 11.5 mph - N/A   Clear
4:16 PM 51.6 °F - 27.1 °F 39% 30.29 in 10.0 mi North 11.5 mph 17.3 mph N/A   Clear
4:35 PM 51.8 °F - 27.0 °F 38% 30.29 in 10.0 mi North 9.2 mph - N/A   Clear
4:55 PM 52.2 °F - 27.7 °F 39% 30.29 in 10.0 mi NNW 9.2 mph - N/A   Clear
5:15 PM 52.5 °F - 27.1 °F 38% 30.29 in 10.0 mi North 10.4 mph - N/A   Clear
5:35 PM 51.4 °F - 25.7 °F 37% 30.28 in 10.0 mi North 10.4 mph 17.3 mph N/A   Clear
5:36 PM 51.8 °F - 25.9 °F 37% 30.28 in 10.0 mi North 11.5 mph 17.3 mph N/A   Clear
5:55 PM 52.2 °F - 26.8 °F 37% 30.28 in 10.0 mi NNW 10.4 mph - N/A   Clear
5:56 PM 52.0 °F - 26.6 °F 37% 30.28 in 10.0 mi North 9.2 mph - N/A   Clear
6:15 PM 51.8 °F - 26.1 °F 37% 30.27 in 10.0 mi North 10.4 mph - N/A   Clear
6:35 PM 51.8 °F - 27.0 °F 38% 30.27 in 10.0 mi North 9.2 mph - N/A   Clear
6:55 PM 51.1 °F - 26.4 °F 38% 30.27 in 10.0 mi North 6.9 mph - N/A   Clear
7:15 PM 50.2 °F - 26.6 °F 40% 30.27 in 10.0 mi North 10.4 mph - N/A   Clear
7:35 PM 49.1 °F - 26.6 °F 42% 30.27 in 10.0 mi North 8.1 mph - N/A   Clear
7:36 PM 49.1 °F - 26.6 °F 42% 30.27 in 10.0 mi North 8.1 mph - N/A   Clear
7:55 PM 47.7 °F - 27.3 °F 45% 30.27 in 10.0 mi North 8.1 mph - N/A   Clear
7:56 PM 47.5 °F - 27.3 °F 46% 30.27 in 10.0 mi North 6.9 mph - N/A   Clear
8:15 PM 46.8 °F - 27.5 °F 47% 30.27 in 10.0 mi North 8.1 mph - N/A   Clear
8:16 PM 46.6 °F - 27.5 °F 47% 30.27 in 10.0 mi North 8.1 mph - N/A   Clear
8:35 PM 46.4 °F 42.4 °F 27.7 °F 48% 30.27 in 10.0 mi North 8.1 mph - N/A   Clear
8:55 PM 45.1 °F 41.4 °F 28.2 °F 52% 30.27 in 10.0 mi North 6.9 mph - N/A   Clear
9:15 PM 44.1 °F 40.8 °F 28.8 °F 55% 30.27 in 10.0 mi North 5.8 mph - N/A   Clear
9:35 PM 43.5 °F 40.1 °F 28.9 °F 56% 30.27 in 10.0 mi North 5.8 mph - N/A   Clear
9:36 PM 43.3 °F 39.9 °F 28.9 °F 57% 30.27 in 10.0 mi North 5.8 mph - N/A   Clear
9:55 PM 43.5 °F - 29.1 °F 57% 30.28 in 10.0 mi Calm Calm - N/A   Clear
9:56 PM 43.5 °F - 29.1 °F 57% 30.28 in 10.0 mi Calm Calm - N/A   Clear
10:15 PM 43.2 °F 40.5 °F 28.9 °F 57% 30.28 in 10.0 mi NE 4.6 mph - N/A   Clear
10:35 PM 43.5 °F 41.9 °F 27.9 °F 54% 30.29 in 10.0 mi NE 3.5 mph - N/A   Clear
10:36 PM 43.7 °F 42.1 °F 27.9 °F 54% 30.29 in 10.0 mi NE 3.5 mph - N/A   Clear
10:55 PM 42.8 °F 41.1 °F 26.8 °F 53% 30.29 in 10.0 mi NE 3.5 mph - N/A   Clear
11:15 PM 42.8 °F 41.1 °F 25.3 °F 50% 30.29 in 10.0 mi NE 3.5 mph - N/A   Clear
11:16 PM 42.8 °F 41.1 °F 25.3 °F 50% 30.29 in 10.0 mi NE 3.5 mph - N/A   Clear
11:35 PM 42.3 °F 38.6 °F 23.9 °F 48% 30.29 in 10.0 mi ENE 5.8 mph - N/A   Clear
11:36 PM 42.3 °F 38.6 °F 23.9 °F 48% 30.29 in 10.0 mi NE 5.8 mph - N/A   Clear
11:55 PM 41.9 °F 40.0 °F 23.0 °F 47% 30.29 in 10.0 mi East 3.5 mph - N/A   Clear